Content
SEND FEEDBACK

Daily
Averages
Monthly
Summary
United States of America

STATEN ISLAND, NEW YORK


Home > North America > United States > New York
Elevation: 152 feet     Latitude: 40 35N     Longitude: 074 09W

WEATHER
 
SELECT A DAY
Number of Records: 189,550;   Date Range: 1/1/95 - 7/23/14
 
SHARE

PRINT THIS DATA

[ ← Previous Day ]
WEATHER ALMANAC - MAY 6, 2013
[ Next Day → ]
[ °C ]   °F
Weather ElementAverageHighLow
Temperature55.9 °F64.9 °F (1:51 pm)48 °F (2:51 am)
Dewpoint46.2 °F48.9 °F (2:51 pm)42.8 °F (2:26 am)
Humidity70.5 %86 % (2:51 am)54 % (1:51 pm)
Barometer30.21 in30.27 in (8:51 am)30.17 in (3:51 pm)
Wind Speed4.3 mph9.2 mph (3:51 pm)
Weather ElementAverage
Visibility9.7 mi
Wind DirectionE (86.4 °)

Weather ElementTotal
Precipitation---
Heating Degree Days8.6 (Base 65)
Growing Degree Days6.5 (Base 50)
Averaged from 25 records on May 6, 2013
WEATHER CONDITIONS BREAKOUT
WIND DIRECTION BREAKOUT
WEATHER BY HOUR - MAY 6, 2013
[ °C ]   °F
Local TimeTemperatureDewpointHumidityBarometerVisibilityWind DirectionWind SpeedGust SpeedPrecipitationEventsConditions
1:51 AM48.9 °F43.0 °F80 %30.23 in10.0 miESE (110°)3.5 mphPartly Cloudy
2:26 AM48.2 °F42.8 °F82 %30.22 in10.0 miCalmMostly Cloudy
2:51 AM48.0 °F44.1 °F86 %30.22 in10.0 miVariable4.6 mphMostly Cloudy
3:51 AM48.9 °F44.1 °F83 %30.22 in10.0 miCalmOvercast
4:51 AM50.0 °F43.0 °F77 %30.22 in10.0 miNorth (360°)4.6 mphOvercast
5:51 AM50.0 °F44.1 °F80 %30.23 in9.0 miNNE (30°)3.5 mphOvercast
6:51 AM51.1 °F45.0 °F80 %30.24 in8.0 miNorth (10°)5.8 mphOvercast
7:51 AM52.0 °F44.1 °F74 %30.26 in9.0 miEast (90°)4.6 mphOvercast
8:51 AM54.0 °F45.0 °F72 %30.27 in7.0 miVariable5.8 mphOvercast
9:51 AM55.0 °F45.0 °F69 %30.27 in9.0 miEast (80°)6.9 mphOvercast
10:51 AM57.0 °F45.0 °F64 %30.27 in10.0 miESE (110°)5.8 mphOvercast
11:51 AM59.0 °F46.0 °F62 %30.25 in10.0 miCalmOvercast
12:51 PM63.0 °F46.9 °F56 %30.23 in10.0 miCalmMostly Cloudy
1:51 PM64.9 °F48.0 °F54 %30.21 in10.0 miENE (60°)3.5 mphMostly Cloudy
2:51 PM63.0 °F48.9 °F60 %30.19 in10.0 miEast (90°)6.9 mphMostly Cloudy
3:51 PM64.0 °F48.0 °F56 %30.17 in10.0 miSSE (150°)9.2 mphMostly Cloudy
4:51 PM62.1 °F48.9 °F62 %30.17 in10.0 miSSE (150°)6.9 mphMostly Cloudy
5:25 PM62.6 °F48.2 °F59 %30.17 in10.0 miSE (140°)9.2 mphMostly Cloudy
5:51 PM61.0 °F48.0 °F62 %30.17 in10.0 miSouth (170°)6.9 mphScattered Clouds
6:51 PM59.0 °F48.0 °F67 %30.17 in10.0 miSE (140°)5.8 mphMostly Cloudy
7:51 PM55.9 °F48.0 °F75 %30.17 in10.0 miSouth (170°)5.8 mphMostly Cloudy
8:51 PM55.0 °F48.0 °F77 %30.18 in10.0 miSSE (160°)3.5 mphScattered Clouds
9:51 PM55.0 °F48.0 °F77 %30.19 in10.0 miSE (140°)3.5 mphScattered Clouds
10:51 PM55.0 °F46.9 °F74 %30.18 in10.0 miCalmPartly Cloudy
11:51 PM55.0 °F46.9 °F74 %30.17 in10.0 miCalmPartly Cloudy
Hourly data recorded from KEWR, located miles away from Staten Island, New York







STORIES FROM OUR PARTNERS